Weather History for Sarasota, FL

Change the Weather History Date:

Thursday, June 13, 2013

  Actual Average Record
Temperature  
Mean Temperature 83 °F 81 °F  
Max Temperature 89 °F 89 °F 96 °F (1998)
Min Temperature 76 °F 73 °F 59 °F (1913)
Degree Days  
Heating Degree Days 0 0  
Month to date heating degree days 0 0  
Since 1 June heating degree days 0 0  
Since 1 July heating degree days 397 477  
Cooling Degree Days 18 16  
Month to date cooling degree days 207 194  
Year to date cooling degree days 1075 945  
Since 1 June cooling degree days 207 194  
Growing Degree Days 32 (Base 50)    
Moisture  
Dew Point 74 °F    
Average Humidity 75    
Maximum Humidity 94    
Minimum Humidity 63    
Precipitation  
Precipitation 0.00 in 0.23 in 2.35 in (1963)
Month to date precipitation 6.39 2.30  
Year to date precipitation 14.53 16.00  
Sea Level Pressure  
Sea Level Pressure 30.00 in    
Wind  
Wind Speed 8 mph (WSW)    
Max Wind Speed 16 mph    
Max Gust Speed 20 mph    
Visibility 10 miles    
Events      
T = Trace of Precipitation, MM = Missing Value Source: NWS Daily Summary

Daily Weather History Graph

Daily Weather History Graph

Search for Another Location

Airport:

Trip Planner

Search our weather history database for the weather conditions in past years. The results will help you decide how hot, cold, wet, or windy it might be!

Date:

Astronomy

Jun. 13, 2013 Rise Set
Actual Time 6:34 AM EDT 8:26 PM EDT
Civil Twilight 6:08 AM EDT 8:52 PM EDT
Nautical Twilight 5:36 AM EDT 9:24 PM EDT
Astronomical Twilight 5:02 AM EDT 9:58 PM EDT
Moon 10:50 AM EDT (6/13) 11:54 PM EDT (6/13)
Length of Visible Light 14h 44m
Length of Day
13h 51m
Waxing Crescent, 21% of the Moon is Illuminated
Jun 13
Waxing Crescent
Jun 16
First Quarter
Jun 23
Full
Jun 30
Last Quarter
Jul 8
New

Hourly Weather History & Observations

Time (EDT) Temp. Heat Index Dew Point Humidity Pressure Visibility Wind Dir Wind Speed Gust Speed Precip Events Conditions
12:53 AM 77.0 °F - 73.0 °F 88% 30.04 in 10.0 mi Calm Calm - N/A   Clear
1:53 AM 78.1 °F - 73.9 °F 87% 30.02 in 10.0 mi South 5.8 mph - N/A   Clear
2:53 AM 75.9 °F - 73.0 °F 91% 30.01 in 10.0 mi SE 5.8 mph - N/A   Scattered Clouds
3:34 AM 78.8 °F - 75.2 °F 89% 30.00 in 10.0 mi SSW 3.5 mph - N/A   Mostly Cloudy
3:53 AM 77.0 °F - 73.0 °F 88% 30.00 in 10.0 mi Calm Calm - N/A   Mostly Cloudy
4:37 AM 80.6 °F 86.2 °F 75.2 °F 84% 29.99 in 10.0 mi SSW 5.8 mph - N/A   Scattered Clouds
4:53 AM 81.0 °F 86.2 °F 73.9 °F 79% 29.99 in 10.0 mi SSW 4.6 mph - N/A   Partly Cloudy
5:31 AM 80.6 °F 86.2 °F 75.2 °F 84% 29.99 in 10.0 mi WSW 4.6 mph - N/A   Mostly Cloudy
5:53 AM 81.0 °F 86.7 °F 75.0 °F 82% 29.99 in 10.0 mi SW 4.6 mph - N/A   Mostly Cloudy
6:53 AM 81.0 °F 86.2 °F 73.9 °F 79% 30.00 in 10.0 mi WSW 5.8 mph - N/A   Scattered Clouds
7:20 AM 80.6 °F 86.2 °F 75.2 °F 84% 30.01 in 10.0 mi West 3.5 mph - N/A   Mostly Cloudy
7:53 AM 82.0 °F 88.6 °F 75.0 °F 79% 30.01 in 10.0 mi WSW 3.5 mph - N/A   Mostly Cloudy
8:07 AM 82.4 °F 89.5 °F 75.2 °F 79% 30.01 in 10.0 mi Calm Calm - N/A   Partly Cloudy
8:53 AM 84.0 °F 91.9 °F 75.0 °F 74% 30.04 in 10.0 mi NW 8.1 mph - N/A   Scattered Clouds
9:53 AM 82.9 °F 89.4 °F 73.9 °F 74% 30.05 in 10.0 mi NW 8.1 mph - N/A   Scattered Clouds
10:53 AM 86.0 °F 93.8 °F 73.9 °F 67% 30.04 in 10.0 mi West 10.4 mph - N/A   Scattered Clouds
11:00 AM 86.0 °F 93.4 °F 73.4 °F 66% 30.04 in 10.0 mi West 10.4 mph - N/A   Mostly Cloudy
11:07 AM 86.0 °F 93.4 °F 73.4 °F 66% 30.04 in 10.0 mi West 9.2 mph - N/A   Scattered Clouds
11:53 AM 87.1 °F 95.4 °F 73.9 °F 65% 30.04 in 10.0 mi West 10.4 mph - N/A   Scattered Clouds
12:53 PM 87.1 °F 95.4 °F 73.9 °F 65% 30.03 in 10.0 mi West 13.8 mph - N/A   Partly Cloudy
1:53 PM 88.0 °F 96.5 °F 73.9 °F 63% 30.01 in 10.0 mi West 13.8 mph - N/A   Scattered Clouds
2:53 PM 88.0 °F 96.5 °F 73.9 °F 63% 29.98 in 10.0 mi West 11.5 mph - N/A   Clear
3:53 PM 88.0 °F 95.6 °F 73.0 °F 61% 29.98 in 10.0 mi West 13.8 mph - N/A   Clear
4:53 PM 87.1 °F 94.5 °F 73.0 °F 63% 29.97 in 10.0 mi West 10.4 mph - N/A   Clear
5:53 PM 84.9 °F 91.4 °F 73.0 °F 67% 29.97 in 10.0 mi WSW 9.2 mph - N/A   Clear
6:53 PM 84.0 °F 90.2 °F 73.0 °F 69% 29.93 in 10.0 mi WNW 13.8 mph - N/A   Clear
7:53 PM 82.9 °F 89.4 °F 73.9 °F 74% 29.93 in 10.0 mi West 10.4 mph - N/A   Clear
8:53 PM 82.0 °F 87.4 °F 73.0 °F 74% 29.93 in 10.0 mi West 9.2 mph - N/A   Clear
9:53 PM 82.0 °F 87.9 °F 73.9 °F 76% 29.93 in 10.0 mi West 8.1 mph - N/A   Partly Cloudy
10:53 PM 81.0 °F 86.2 °F 73.9 °F 79% 29.95 in 10.0 mi WSW 6.9 mph - N/A   Clear
11:53 PM 81.0 °F 85.8 °F 73.0 °F 77% 29.95 in 10.0 mi SW 6.9 mph - N/A   Mostly Cloudy